Location: Tamazert
(32.6352°N, 5.2072°W)
Time: 07:25:21
(UTC+00:00)

Tiros 1 despin weight - Pass Details

Date: 08 October 2022
Orbit: 590 x 637 km, 48.2° (Epoch: 28 November)

Event Time Altitude Azimuth Distance (km) Brightness Sun altitude
Rises 16:26:56 0° 301° (WNW) 2,841 ? 17.6°
Reaches altitude 10° 16:31:00 10° 338° (NNW) 1,952 ? 16.7°
Maximum altitude 16:32:18 11° 354° (N) 1,886 ? 16.5°
Drops below altitude 10° 16:33:36 10° 12° (NNE) 1,962 ? 16.2°
Sets 16:37:44 0° 48° (NE) 2,882 ? 15.4°
